User: anonymous   Login
Location: Stamford Observatory
(41.1241°N, 73.5498°W)
Time: 15:01:54
(UTC-04:00)
Language:

IRS-P3 - Orbit

View from above orbital plane
View from above orbital plane
View from above satellite
View from above satellite

Ground track
Ground track

The orbit data is extracted from the following two-line orbital elements,

1 23827U 96017A   16270.45660160  .00000045  00000-0  39936-4 0  9992
2 23827  98.6964 205.2065 0004526  80.6153 279.5537 14.22471178 64911
Epoch (UTC): 26 September 2016 10:57:30
Eccentricity: 0.0004526
inclination: 98.6964°
perigee height: 814 km
apogee height: 820 km
right ascension of ascending node: 205.2065°
argument of perigee: 80.6153°
revolutions per day: 14.22471178
mean anomaly at epoch: 279.5537°
orbit number at epoch: 6491

The dashed part of the orbit path shows where the satellite is in the earth's shadow,  

DLR